Location: Unspecified
(0.0000°N, 0.0000°E)
Time: 14:04:53
(UTC+02:00)

Tiros 1 despin weight - Visible Passes

Search period start: 29 July 2016 00:00
Search period end: 08 August 2016 00:00
Orbit: 596 x 644 km, 48.2° (Epoch: 28 July)

Date Brightness Start Highest point End Pass type
(mag) Time Alt. Az. Time Alt. Az. Time Alt. Az.
29 Jul ? 21:01:14 10° SSE 21:02:39 13° SSE 21:02:39 13° SSE visible
30 Jul ? 21:16:42 10° SSW 21:21:01 37° SE 21:21:34 35° ESE visible
31 Jul ? 21:33:32 10° SW 21:38:13 78° NW 21:41:07 22° NNE visible
01 Aug ? 21:51:25 10° WSW 21:55:24 28° NW 21:59:20 10° N visible
02 Aug ? 20:26:32 10° SSW 20:31:10 60° SE 20:35:43 10° NE visible
02 Aug ? 22:11:44 10° WNW 22:12:39 10° NW 22:13:33 10° NW visible
03 Aug ? 20:43:50 10° SW 20:48:21 48° NW 20:52:48 10° NNE visible
04 Aug ? 07:12:07 10° N 07:15:21 20° NE 07:18:37 10° E visible
04 Aug ? 21:02:22 10° W 21:05:34 18° NW 21:08:44 10° N visible
05 Aug ? 07:28:14 10° NNW 07:32:34 56° NE 07:36:55 10° SE visible
06 Aug ? 06:06:46 10° NNE 06:08:18 12° NE 06:09:50 10° ENE visible
07 Aug ? 06:21:38 10° NNW 06:25:32 31° NE 06:29:29 10° ESE visible
